Back to catalog

OPS 6582

TRANSIT 5B-5

AliveNavigationPO
NORAD 965·PAYLOAD·🇺🇸 United States

Launched Dec 13, 1964 from Vandenberg Space Force Base

Loading…

Next Passes (next 24 hours)

TLE

FreshSource: Space-Track

Epoch: Sep 14, 2026, 07:57 UTC

1 00965U 64083D   26257.33186878  .00000048  00000-0  53780-4 0  9996
2 00965  90.0848 203.7721 0042452  19.8174 132.4854 13.57019318 55702

Track OPS 6582 in real time with AllMySat

Download on the App Store